Location: ??
(34.9170°N, 135.5016°E)
Time: 19:44:15
(UTC+00:00)

Courier 1B Rocket - Visible Passes

Search period start: 28 February 2021 00:00
Search period end: 10 March 2021 00:00
Orbit: 920 x 1202 km, 28.3° (Epoch: 28 February)

Date Brightness Start Highest point End Pass type
(mag) Time Alt. Az. Time Alt. Az. Time Alt. Az.
28 Feb 6.0 10:37:37 10° W 10:45:01 46° S 10:47:57 33° SE visible
28 Feb 7.4 12:32:02 10° WSW 12:34:19 17° WSW 12:34:19 17° WSW visible
01 Mar 6.0 09:36:20 10° W 09:43:48 51° S 09:50:47 12° ESE visible
01 Mar 6.4 11:30:19 10° W 11:37:06 33° SSW 11:37:09 33° SSW visible
02 Mar 6.3 10:28:50 10° W 10:35:59 40° SSW 10:40:01 24° SE visible
02 Mar 7.4 12:23:53 10° WSW 12:26:24 16° SW 12:26:24 16° SW visible
03 Mar 6.2 09:27:31 10° W 09:34:49 46° S 09:42:12 10° ESE visible
03 Mar 6.7 11:21:50 10° WSW 11:27:59 26° SSW 11:29:19 24° S visible
04 Mar 6.6 10:20:12 10° W 10:26:55 32° SSW 10:32:16 15° SSE visible
04 Mar 7.6 12:16:38 10° SW 12:18:39 12° SW 12:18:39 12° SW visible
05 Mar 6.5 09:18:48 10° W 09:25:47 39° SSW 09:32:56 10° SE visible
05 Mar 7.2 11:13:46 10° WSW 11:18:51 19° SSW 11:21:40 16° S visible
06 Mar 7.0 10:11:47 10° WSW 10:17:49 25° SSW 10:23:55 10° SSE visible
07 Mar 6.8 09:10:13 10° W 09:16:45 32° SSW 09:23:27 10° SE visible
07 Mar 7.5 11:06:38 10° SW 11:09:41 13° SSW 11:12:46 10° S visible
08 Mar 7.4 10:03:48 10° WSW 10:08:42 18° SSW 10:13:41 10° SSE visible
